Unser Flugplatzteam

Segelflugzeugschlepp am Flugplatz Konstanz

Unsere freundlichen Mitarbeiter stehen Ihnen gerne mit Rat und Tat zur Seite:

Robert Leitner

Flugleiter, Landesbeauftragter für Luftaufsicht am Verkehrlandeplatz Konstanz

Minky Schweizer

Flugleiterin

Dieter Bauer

Flugleiter

Live am Platz

Die Bilder unserer Webcams werden alle 5 Minuten aktualisiert.

Sonnenaufgang:

04:19 UTC / 06:19 Lokal

Sonnenuntergang:

18:24 UTC / 20:24 Lokal

METAR (22.04.2019 15:50 UTC):

EDNY 221550Z 05006KT CAVOK 22/06 Q1002
VFR

TAF (22.04.2019 11:00 UTC):

TAF EDNY 221100Z 2212/2312 04010KT CAVOK PROB30 TEMPO 2212/2215 19005KT BECMG 2220/2222 VRB03KT TEMPO 2309/2312 24005KT

Alle Angaben unverbindlich und ohne Gewähr. Zeiten genähert.

Für den Verkehrslandeplatz Konstanz werden keine offiziellen Wetterinformationen ausgegeben. Daher werden zur Orientierung Daten des nahegelegenen Flughafens Friedrichshafen dargestellt.

Flugwetterdaten zur Verfügung gestellt von wippich.aero.